TimeCDT,TemperatureF,Dew PointF,Humidity,Sea Level PressureIn,VisibilityMPH,Wind Direction,Wind SpeedMPH,Gust SpeedMPH,PrecipitationIn,Events,Conditions,WindDirDegrees,DateUTC
12:56 AM,73.9,71.1,91,29.95,10.0,NNW,3.5,-,N/A,,Clear,340,2013-08-07 05:56:00
1:56 AM,73.9,71.1,91,29.94,10.0,NW,3.5,-,N/A,,Clear,320,2013-08-07 06:56:00
2:56 AM,73.9,70.0,87,29.95,10.0,Calm,Calm,-,N/A,,Clear,0,2013-08-07 07:56:00
3:56 AM,73.9,70.0,87,29.96,10.0,Calm,Calm,-,0.01,,Clear,0,2013-08-07 08:56:00
4:56 AM,73.9,70.0,87,29.96,10.0,Calm,Calm,-,N/A,,Clear,0,2013-08-07 09:56:00
5:56 AM,73.0,70.0,90,29.97,10.0,Calm,Calm,-,N/A,,Clear,0,2013-08-07 10:56:00
6:56 AM,73.9,71.1,91,29.98,10.0,ESE,4.6,-,N/A,,Clear,110,2013-08-07 11:56:00
7:56 AM,78.1,72.0,81,30.00,10.0,East,3.5,-,N/A,,Clear,90,2013-08-07 12:56:00
8:56 AM,82.0,73.9,76,30.01,10.0,East,5.8,-,N/A,,Clear,80,2013-08-07 13:56:00
9:56 AM,84.9,75.0,72,30.00,10.0,ESE,6.9,-,N/A,,Clear,120,2013-08-07 14:56:00
10:56 AM,88.0,75.0,65,30.00,10.0,NE,5.8,-,N/A,,Clear,40,2013-08-07 15:56:00
11:31 AM,89.6,75.2,62,30.02,10.0,Calm,Calm,-,N/A,,Mostly Cloudy,0,2013-08-07 16:31:00
11:41 AM,89.6,73.4,59,30.02,10.0,Calm,Calm,-,N/A,,Scattered Clouds,0,2013-08-07 16:41:00
11:56 AM,88.0,73.9,63,30.00,10.0,Calm,Calm,-,N/A,,Partly Cloudy,0,2013-08-07 16:56:00
12:56 PM,90.0,73.0,57,29.99,10.0,East,5.8,-,N/A,,Clear,100,2013-08-07 17:56:00
1:56 PM,91.0,73.9,57,29.96,10.0,Variable,5.8,-,N/A,,Partly Cloudy,0,2013-08-07 18:56:00
2:56 PM,93.0,71.1,49,29.95,10.0,ESE,4.6,-,N/A,,Partly Cloudy,110,2013-08-07 19:56:00
3:56 PM,91.9,73.9,55,29.94,10.0,SSE,3.5,-,N/A,,Mostly Cloudy,150,2013-08-07 20:56:00
4:56 PM,91.0,73.0,55,29.92,10.0,SSE,3.5,-,N/A,,Clear,160,2013-08-07 21:56:00
5:56 PM,91.0,73.0,55,29.92,10.0,Calm,Calm,-,N/A,,Clear,0,2013-08-07 22:56:00
6:56 PM,87.1,75.0,67,29.92,10.0,South,5.8,-,N/A,,Clear,180,2013-08-07 23:56:00
7:56 PM,84.0,75.9,76,29.95,10.0,Calm,Calm,-,N/A,,Partly Cloudy,0,2013-08-08 00:56:00
8:56 PM,82.0,75.9,82,29.97,10.0,SE,4.6,-,N/A,,Clear,130,2013-08-08 01:56:00
9:56 PM,80.1,75.0,85,29.99,10.0,Calm,Calm,-,N/A,,Clear,0,2013-08-08 02:56:00
10:56 PM,79.0,75.0,88,29.99,10.0,Calm,Calm,-,N/A,,Clear,0,2013-08-08 03:56:00
11:56 PM,78.1,73.9,87,29.98,10.0,SSE,3.5,-,N/A,,Clear,160,2013-08-08 04:56:00